Regional Weather Roundup
Issued by NWS Green Bay, WI

Home | Current Version | Previous Version | Graphics & Text | Print | Product List | Glossary Off
Versions: 1 2 3 4 5 6 7 8 9 10 11 12 13 14 15 16 17 18 19 20 21 22 23 24 25 26 27 28 29 30 31 32 33 34 35 36 37 38 39 40 41 42 43 44 45 46 47 48 49 50

000
ASUS43 KGRB 261200
RWRGRB

NORTH-CENTRAL AND NORTHEAST WISCONSIN REGIONAL WEATHER ROUNDUP
NATIONAL WEATHER SERVICE GREEN BAY WI
700 AM CDT MON JUN 26 2017

WIZ005-009-010>012-018-019-261300-
NORTH CENTRAL WISCONSIN

CITY           SKY/WX    TMP DP  RH WIND       PRES   REMARKS
IRONWOOD       LGT RAIN  47  46  97 NW10      30.06R
MANITOWISH WTR NOT AVBL
ARBOR VITAE    NOT AVBL
EAGLE RIVER    NOT AVBL
LAND O LAKES   CLOUDY    46  44  93 NW6       30.02S
RHINELANDER    CLOUDY    46  44  93 W10       30.04R
PHILLIPS       NOT AVBL
ANTIGO         NOT AVBL
TOMAHAWK       NOT AVBL
MERRILL        PTSUNNY   48  44  87 NW8       30.07R
$$

WIZ013-073-261300-
NORTHEAST WISCONSIN

CITY           SKY/WX    TMP DP  RH WIND       PRES   REMARKS
IRON MOUNTAIN  CLOUDY    49  44  83 NW9       29.97S
MARINETTE      CLOUDY    51  46  83 VRB6      30.00S
$$

WIZ017-030-035>037-045-261300-
CENTRAL WISCONSIN

CITY           SKY/WX    TMP DP  RH WIND       PRES   REMARKS
MEDFORD        NOT AVBL
WAUSAU         MOSUNNY   48  44  86 W15       30.05S
MOSINEE        PTSUNNY   46  46 100 W8        30.08S
MARSHFIELD     MOSUNNY   48  43  82 NW10      30.09R
WISC RAPIDS    SUNNY     49  46  90 NW10      30.10S
STEVENS POINT  NOT AVBL
WAUPACA        SUNNY     52  48  87 W8        30.07R
SHAWANO        NOT AVBL
CLINTONVILLE   MOSUNNY   50  45  81 W10G17    30.05S
WAUTOMA        SUNNY     51  47  86 W9        30.09S
$$

WIZ038-039-048-051-261300-
FOX VALLEY

CITY           SKY/WX    TMP DP  RH WIND       PRES   REMARKS
NWS GREEN BAY  SUNNY     53  50  89 W12       30.04S
APPLETON       MOSUNNY   48  48 100 W10       30.04S
OSHKOSH        SUNNY     52  47  83 W7        30.06S
FOND DU LAC    SUNNY     53  46  77 W10       30.07S
$$

WIZ022-050-052-261300-
EAST CENTRAL WISCONSIN

CITY           SKY/WX    TMP DP  RH WIND       PRES   REMARKS
EPHRAIM        NOT AVBL
WASHINGTON ISL NOT AVBL
STURGEON BAY     N/A     53  47  79 W10         N/A
MANITOWOC      NOT AVBL
SHEBOYGAN      SUNNY     54  51  90 W8        30.05S
$$

LMZ563-521-522-541>543-261300-
LAKESHORE

STATION/POSITION TIME  TEMP    WIND        PRES    VSBY  WAVE
                       AIR SEA DIR/SP/G                  HT/PER
                 (UTC) (F)     (DEG/KT/KT) (MB)    (MI)  (FT/S)
SHEBOYGAN LKSHOR 1100   53     260/ 11/ 13 1017.4R
KEWAUNEE LKSHORE 1130   52     280/  7/ 11 1016.0R
NORTHPORT PIER   1140   53     290/  7/ 14 1014.9R
N MID LAKE BUOY  1050   55 57  360/  6/  8 1014.7R         1/ 3
S GREEN BAY BUOY 1130   54     270/ 16/ 19 1015.9R
CHAMBERS ISLAND  1140   53     230/  7/ 15 1014.9S
MENOMINEE LKSHOR 1130          260/  7/ 12 1015.0R
$$




USA.gov is the U.S. government's official web portal to all federal, state and local government web resources and services.